Simultaneous Nadir Overpasses (SNOs) Predictions

Prediction of SNOs between METOP-A and NPP Satellite Orbit:

Table of predicted SNOs for the next 14.0 days since TLE Epoch: 6/8/2018
Index Date (METOP-A) Time (METOP-A) Lat,Lon (METOP-A) SZA (METOP-A ) Date (NPP) Time (NPP) Lat,Lon (NPP) SZA (NPP ) Distance(km) Time Diff (sec)
1 06/10/2018 01:55:34 74.01, 143.22 51.09 06/10/2018 01:54:27 74.02, 140.39 51.28 86.78 67
2 06/10/2018 02:46:17 -73.93, -49.64 128.98 06/10/2018 02:45:09 -73.94, -52.08 128.83 75.16 68
3 06/10/2018 03:37:02 73.68, 117.11 50.80 06/10/2018 03:35:50 73.68, 115.83 50.89 39.79 72
4 06/10/2018 04:27:45 -73.60, -75.74 129.27 06/10/2018 04:26:32 -73.59, -76.64 129.22 28.40 73
5 06/10/2018 05:18:29 73.40, 91.14 50.55 06/10/2018 05:17:14 73.39, 91.14 50.56 1.58 75
6 06/10/2018 06:09:11 -73.38,-101.59 129.48 06/10/2018 06:07:58 -73.40,-101.58 129.44 2.74 73
7 06/10/2018 06:59:51 73.38, 65.74 50.52 06/10/2018 06:58:44 73.39, 65.75 50.56 2.10 67
8 06/10/2018 07:50:32 -73.40,-126.88 129.46 06/10/2018 07:49:28 -73.41,-126.96 129.43 2.63 64
9 06/10/2018 08:41:12 73.40, 40.45 50.54 06/10/2018 08:40:14 73.40, 40.36 50.56 2.63 58
10 06/10/2018 09:31:54 -73.37,-152.28 129.49 06/10/2018 09:30:57 -73.36,-152.23 129.49 1.94 57
11 06/10/2018 10:22:34 73.37, 15.05 50.51 06/10/2018 10:21:43 73.35, 15.09 50.50 2.35 51
12 06/10/2018 11:13:16 -73.35,-177.68 129.52 06/10/2018 11:12:27 -73.37,-177.62 129.49 3.05 49
13 06/10/2018 12:03:56 73.34, -10.35 50.48 06/10/2018 12:03:13 73.36, -10.30 50.50 2.56 43
14 06/10/2018 12:54:37 -73.37, 157.03 129.50 06/10/2018 12:53:57 -73.37, 156.99 129.49 1.23 40
15 06/10/2018 13:45:17 73.37, -35.64 50.50 06/10/2018 13:44:43 73.36, -35.68 50.51 1.27 34
16 06/10/2018 14:35:59 -73.34, 131.63 129.53 06/10/2018 14:35:26 -73.33, 131.72 129.54 3.24 33
17 06/10/2018 15:26:39 73.34, -61.04 50.47 06/10/2018 15:26:13 73.37, -61.07 50.51 3.51 26
18 06/10/2018 16:17:20 -73.36, 106.34 129.52 06/10/2018 16:16:56 -73.33, 106.33 129.54 3.54 24
19 06/10/2018 17:08:01 73.31, -86.44 50.44 06/10/2018 17:07:42 73.33, -86.34 50.45 3.55 19
20 06/10/2018 17:58:42 -73.34, 80.94 129.54 06/10/2018 17:58:26 -73.34, 80.95 129.54 0.19 16
21 06/10/2018 18:49:22 73.34,-111.73 50.45 06/10/2018 18:49:12 73.33,-111.73 50.45 0.51 10
22 06/10/2018 19:40:03 -73.36, 55.65 129.53 06/10/2018 19:39:56 -73.34, 55.56 129.54 3.49 7
23 06/10/2018 20:30:44 73.31,-137.13 50.43 06/10/2018 20:30:42 73.34,-137.11 50.45 3.19 2
24 06/10/2018 21:21:25 -73.33, 30.25 129.56 06/10/2018 21:21:26 -73.35, 30.17 129.54 3.02 1
25 06/10/2018 22:12:05 73.33,-162.42 50.44 06/10/2018 22:12:12 73.34,-162.50 50.45 2.81 7
26 06/10/2018 23:02:47 -73.31, 4.85 129.59 06/10/2018 23:02:55 -73.30, 4.90 129.59 1.53 8
27 06/10/2018 23:53:27 73.30, 172.18 50.41 06/10/2018 23:53:41 73.30, 172.22 50.40 1.65 14
28 06/11/2018 00:44:08 -73.33, -20.44 129.57 06/11/2018 00:44:25 -73.31, -20.49 129.59 2.73 17
29 06/11/2018 01:34:47 73.33, 146.89 50.43 06/11/2018 01:35:10 73.30, 146.84 50.40 3.20 23
30 06/11/2018 02:25:29 -73.30, -45.84 129.60 06/11/2018 02:25:54 -73.32, -45.87 129.59 1.82 25
31 06/11/2018 03:16:09 73.30, 121.49 50.40 06/11/2018 03:16:40 73.31, 121.45 50.40 1.50 31
32 06/11/2018 04:06:51 -73.28, -71.24 129.63 06/11/2018 04:07:23 -73.27, -71.15 129.65 2.88 32
33 06/11/2018 04:57:31 73.27, 96.09 50.37 06/11/2018 04:58:09 73.26, 96.18 50.35 2.99 38
34 06/11/2018 05:48:12 -73.30, -96.53 129.61 06/11/2018 05:48:53 -73.28, -96.53 129.64 2.54 41
35 06/11/2018 06:38:52 73.30, 70.80 50.39 06/11/2018 06:39:39 73.27, 70.79 50.35 3.04 47
36 06/11/2018 07:29:34 -73.27,-121.92 129.64 06/11/2018 07:30:23 -73.28,-121.92 129.64 1.10 49
37 06/11/2018 08:20:14 73.27, 45.40 50.36 06/11/2018 08:21:09 73.27, 45.40 50.35 0.63 55
38 06/11/2018 09:10:55 -73.29,-147.21 129.63 06/11/2018 09:11:53 -73.29,-147.31 129.64 3.07 58
39 06/11/2018 10:01:35 73.29, 20.11 50.37 06/11/2018 10:02:39 73.28, 20.02 50.35 3.28 64
40 06/11/2018 10:52:17 -73.27,-172.61 129.65 06/11/2018 10:53:22 -73.24,-172.58 129.70 3.02 65
41 06/11/2018 11:42:57 73.26, -5.29 50.35 06/11/2018 11:44:09 73.28, -5.37 50.35 3.43 72
42 06/11/2018 12:33:39 -73.24, 161.99 129.68 06/11/2018 12:34:52 -73.25, 162.03 129.69 1.66 73
43 06/11/2018 13:24:23 73.03, -31.12 50.14 06/11/2018 13:25:35 73.09, -30.31 50.13 26.98 72
44 06/11/2018 14:15:06 -72.96, 136.05 129.93 06/11/2018 14:16:17 -73.00, 137.19 129.97 37.54 71
45 06/11/2018 15:05:51 72.70, -57.15 49.85 06/11/2018 15:06:59 72.79, -55.05 49.80 70.07 68
46 06/11/2018 15:56:34 -72.63, 110.03 130.21 06/11/2018 15:57:41 -72.70, 112.45 130.30 80.60 67




NCC Satellite Simultaneous Nadir Overpasses (SNOs) Prediction Service
